TimeCDT,TemperatureF,Dew PointF,Humidity,Sea Level PressureIn,VisibilityMPH,Wind Direction,Wind SpeedMPH,Gust SpeedMPH,PrecipitationIn,Events,Conditions,WindDirDegrees,DateUTC
12:13 AM,44.6,39.2,81,29.96,10.0,NNE,6.9,-,N/A,,Overcast,20,2013-10-06 05:13:00
12:34 AM,44.6,39.2,81,29.95,10.0,NNE,5.8,-,N/A,,Overcast,20,2013-10-06 05:34:00
12:53 AM,44.6,39.2,81,29.96,10.0,NNE,5.8,-,N/A,,Overcast,30,2013-10-06 05:53:00
1:13 AM,44.6,39.2,81,29.94,10.0,NNE,5.8,-,N/A,,Overcast,20,2013-10-06 06:13:00
1:34 AM,42.8,39.2,87,29.93,10.0,NNW,6.9,-,N/A,,Overcast,340,2013-10-06 06:34:00
1:53 AM,42.8,39.2,87,29.92,10.0,NNW,9.2,-,N/A,,Scattered Clouds,340,2013-10-06 06:53:00
2:13 AM,41.0,37.4,87,29.93,10.0,North,6.9,-,N/A,,Clear,350,2013-10-06 07:13:00
2:34 AM,42.8,37.4,81,29.93,10.0,North,9.2,-,N/A,,Mostly Cloudy,360,2013-10-06 07:34:00
2:53 AM,42.8,37.4,81,29.93,10.0,North,6.9,-,N/A,,Overcast,360,2013-10-06 07:53:00
3:13 AM,42.8,37.4,81,29.91,10.0,North,9.2,-,N/A,,Overcast,350,2013-10-06 08:13:00
3:33 AM,41.0,37.4,87,29.92,10.0,NNW,10.4,-,N/A,,Overcast,340,2013-10-06 08:33:00
3:53 AM,39.2,35.6,87,29.90,10.0,NNW,15.0,-,N/A,,Overcast,340,2013-10-06 08:53:00
4:13 AM,37.4,35.6,93,29.89,10.0,NNW,11.5,-,N/A,,Scattered Clouds,330,2013-10-06 09:13:00
4:33 AM,37.4,33.8,87,29.89,10.0,NNW,11.5,-,N/A,,Clear,340,2013-10-06 09:33:00
4:53 AM,35.6,33.8,93,29.88,10.0,NNW,11.5,-,N/A,,Clear,340,2013-10-06 09:53:00
5:13 AM,35.6,33.8,93,29.88,10.0,NNW,12.7,-,N/A,,Clear,340,2013-10-06 10:13:00
5:33 AM,35.6,32.0,87,29.88,10.0,NNW,11.5,-,N/A,,Clear,340,2013-10-06 10:33:00
5:53 AM,35.6,32.0,87,29.89,10.0,NNW,11.5,-,N/A,,Clear,340,2013-10-06 10:53:00
6:13 AM,33.8,30.2,87,29.90,10.0,NNW,9.2,-,N/A,,Clear,340,2013-10-06 11:13:00
6:33 AM,33.8,30.2,87,29.90,10.0,North,5.8,-,N/A,,Clear,350,2013-10-06 11:33:00
6:53 AM,32.0,30.2,93,29.90,10.0,Calm,Calm,-,N/A,,Clear,0,2013-10-06 11:53:00
7:13 AM,33.8,30.2,87,29.91,10.0,North,3.5,-,N/A,,Clear,350,2013-10-06 12:13:00
7:33 AM,33.8,30.2,87,29.91,10.0,NW,4.6,-,N/A,,Clear,320,2013-10-06 12:33:00
7:53 AM,32.0,30.2,93,29.91,10.0,Calm,Calm,-,N/A,,Clear,0,2013-10-06 12:53:00
8:13 AM,32.0,30.2,93,29.91,10.0,Calm,Calm,-,N/A,,Clear,0,2013-10-06 13:13:00
8:33 AM,33.8,30.2,87,29.92,10.0,NW,4.6,-,N/A,,Clear,320,2013-10-06 13:33:00
8:53 AM,35.6,32.0,87,29.91,10.0,Calm,Calm,-,N/A,,Clear,0,2013-10-06 13:53:00
9:13 AM,37.4,33.8,87,29.91,10.0,Calm,Calm,-,N/A,,Clear,0,2013-10-06 14:13:00
9:33 AM,39.2,33.8,81,29.91,10.0,Calm,Calm,-,N/A,,Clear,0,2013-10-06 14:33:00
9:53 AM,39.2,33.8,81,29.90,10.0,Calm,Calm,-,N/A,,Clear,0,2013-10-06 14:53:00
10:14 AM,41.0,33.8,76,29.91,10.0,Calm,Calm,-,N/A,,Clear,0,2013-10-06 15:14:00
10:33 AM,42.8,33.8,70,29.91,10.0,Calm,Calm,-,N/A,,Clear,0,2013-10-06 15:33:00
10:53 AM,44.6,35.6,71,29.91,10.0,Calm,Calm,-,N/A,,Clear,0,2013-10-06 15:53:00
11:13 AM,46.4,35.6,66,29.90,10.0,WSW,3.5,-,N/A,,Clear,240,2013-10-06 16:13:00
11:33 AM,46.4,35.6,66,29.90,10.0,Calm,Calm,-,N/A,,Clear,0,2013-10-06 16:33:00
11:53 AM,48.2,35.6,62,29.89,10.0,WNW,5.8,-,N/A,,Clear,290,2013-10-06 16:53:00
12:13 PM,48.2,35.6,62,29.89,10.0,Calm,Calm,-,N/A,,Clear,0,2013-10-06 17:13:00
12:33 PM,51.8,35.6,54,29.88,10.0,West,3.5,-,N/A,,Clear,260,2013-10-06 17:33:00
12:53 PM,51.8,35.6,54,29.88,10.0,West,5.8,-,N/A,,Clear,260,2013-10-06 17:53:00
1:13 PM,53.6,37.4,54,29.87,10.0,WSW,5.8,-,N/A,,Clear,250,2013-10-06 18:13:00
1:33 PM,53.6,37.4,54,29.86,10.0,WSW,4.6,-,N/A,,Clear,250,2013-10-06 18:33:00
1:53 PM,55.4,37.4,51,29.85,10.0,West,6.9,-,N/A,,Clear,270,2013-10-06 18:53:00
2:13 PM,55.4,37.4,51,29.84,10.0,WSW,6.9,-,N/A,,Clear,240,2013-10-06 19:13:00
2:33 PM,57.2,39.2,51,29.83,10.0,WSW,5.8,-,N/A,,Clear,240,2013-10-06 19:33:00
2:53 PM,59.0,39.2,48,29.82,10.0,SW,4.6,-,N/A,,Clear,230,2013-10-06 19:53:00
3:13 PM,59.0,39.2,48,29.82,10.0,WSW,6.9,-,N/A,,Clear,250,2013-10-06 20:13:00
3:33 PM,60.8,39.2,45,29.81,10.0,SW,6.9,-,N/A,,Clear,230,2013-10-06 20:33:00
3:53 PM,62.6,41.0,45,29.80,10.0,SSW,4.6,-,N/A,,Clear,200,2013-10-06 20:53:00
4:13 PM,62.6,42.8,48,29.80,10.0,SW,9.2,-,N/A,,Clear,220,2013-10-06 21:13:00
4:34 PM,62.6,42.8,48,29.78,10.0,SSW,9.2,-,N/A,,Clear,210,2013-10-06 21:34:00
4:53 PM,62.6,42.8,48,29.78,10.0,SSW,8.1,-,N/A,,Clear,210,2013-10-06 21:53:00
5:13 PM,62.6,44.6,52,29.78,10.0,SW,9.2,-,N/A,,Clear,220,2013-10-06 22:13:00
5:33 PM,64.4,42.8,45,29.78,10.0,NW,6.9,-,N/A,,Clear,320,2013-10-06 22:33:00
5:53 PM,66.2,37.4,35,29.78,10.0,NW,11.5,-,N/A,,Clear,310,2013-10-06 22:53:00
6:13 PM,64.4,39.2,40,29.78,10.0,NW,10.4,-,N/A,,Clear,310,2013-10-06 23:13:00
6:33 PM,62.6,39.2,42,29.79,10.0,NW,6.9,-,N/A,,Clear,310,2013-10-06 23:33:00
6:53 PM,59.0,39.2,48,29.79,10.0,NW,5.8,-,N/A,,Clear,310,2013-10-06 23:53:00
7:13 PM,57.2,39.2,51,29.80,10.0,NNW,8.1,-,N/A,,Clear,330,2013-10-07 00:13:00
7:33 PM,57.2,39.2,51,29.80,10.0,North,8.1,-,N/A,,Clear,10,2013-10-07 00:33:00
7:53 PM,55.4,39.2,54,29.80,10.0,North,6.9,-,N/A,,Clear,10,2013-10-07 00:53:00
8:13 PM,53.6,37.4,54,29.80,10.0,North,6.9,-,N/A,,Clear,10,2013-10-07 01:13:00
8:33 PM,51.8,37.4,58,29.80,10.0,North,5.8,-,N/A,,Clear,10,2013-10-07 01:33:00
8:53 PM,50.0,37.4,62,29.81,10.0,North,4.6,-,N/A,,Clear,10,2013-10-07 01:53:00
9:13 PM,48.2,37.4,66,29.81,10.0,North,4.6,-,N/A,,Clear,360,2013-10-07 02:13:00
9:33 PM,46.4,37.4,71,29.81,10.0,Calm,Calm,-,N/A,,Clear,0,2013-10-07 02:33:00
9:53 PM,44.6,37.4,76,29.82,10.0,WNW,4.6,-,N/A,,Clear,300,2013-10-07 02:53:00
10:13 PM,42.8,37.4,81,29.82,10.0,Calm,Calm,-,N/A,,Clear,0,2013-10-07 03:13:00
10:33 PM,42.8,37.4,81,29.83,10.0,Calm,Calm,-,N/A,,Clear,0,2013-10-07 03:33:00
10:53 PM,41.0,35.6,81,29.83,10.0,Calm,Calm,-,N/A,,Clear,0,2013-10-07 03:53:00
11:13 PM,41.0,35.6,81,29.83,10.0,WNW,3.5,-,N/A,,Clear,300,2013-10-07 04:13:00
11:33 PM,39.2,35.6,87,29.84,10.0,West,4.6,-,N/A,,Clear,270,2013-10-07 04:33:00
11:53 PM,41.0,35.6,81,29.84,10.0,Calm,Calm,-,N/A,,Clear,0,2013-10-07 04:53:00